全球卫星定位系统 GPS 52星 (NAVSTAR 52 (USA 168))

导读

NAVSTAR 52(USA 168)是美国于2003年3月31日发射的GPS导航卫星,隶属于美国全球定位系统(NAVSTAR GPS)星座。该卫星运行在高度约20200公里的中地球轨道,轨道周期约12小时,采用三轴稳定设计,为全球范围提供高精度定位、测速与授时服务,满足军民用户对三维位置、运动和时间信息的需求,由美国太空军负责运营维护,是美国GPS全球导航网络的重要组成部分。

基本信息
目录编号:
27704
目录名称:
NAVSTAR 52 (USA 168)
国际标识:
2003-010A
轨道中心:
EARTH
卫星名称:
GPS 52星
卫星全名:
全球卫星定位系统 GPS 52星 (NAVSTAR 52 (USA 168))
卫星状态:
在轨 (已飞行8565 天)
发射日期:
2003-03-31 UTC
国别 :
美国 (US)
星等 :
--
该卫星已列入 空间交会检测服务 Space Conjunction Data Service (SCDS) ,当前飞行风险评估等级: 无高风险
轨道信息
数据来源 国际轨道数据 AOE轨道数据
星历时间 2026-09-11T08:00:00+0800
6小时前
查看轨道信息
2026-09-07T02:00:00+0800
4天前
查看轨道信息
半长轴 27396.224km 27396.224km
偏心率 0.000665 0.0006474
轨道倾角 54.754° 54.757°
近地点辐角 252.873° 252.356°
升交点赤经 322.016° 322.172°
平近点角 177.183° 128.360°
近地点 20999.868km 21000.35km
远地点 21036.306km 21035.824km
周期 752.135分钟 752.135分钟
每日圈数 1.91455 1.91455
详细信息
平衡模式:
三轴稳定
覆盖范围:
全球
运营商:
美国太空军
运营商所在国:
美国
制造商(研发单位):
洛克希德·马丁公司
制造商所在国:
美国
使用方式:
暂无
工作目标:
提供军用及民用全球定位与导航服务
预期寿命:
10年
卫星简介
全球定位系统(英语:Global Positioning System,通常简称GPS),又称全球卫星定位系统,是美国国防部研制,美国太空军运营与维护的中地球轨道卫星导航系统。它可以为地球表面约98%的地区提供准确的定位、测速和高精度的标准时间。全球定位系统可满足位于全球地面任何一处或近地空间的军事用户连续且精确地确定三维位置、三维运动和时间的需求。该系统包括太空中的31颗GPS人造卫星.该卫星仍在工作。
2D轨道图
3D轨道图
轨道高度分析图
轨道倾角分析图
轨道综合分析图
查看轨道综合分析图
与全量物体交会距离演化趋势
与全量物体交会风险概率演化趋势